Back to catalog

CZ-4 DEB

AliveSSO
NORAD 26351·DEBRIS·🇨🇳 China

Launched Oct 14, 1999 from Taiyuan Satellite Launch Center

Loading…

Next Passes (next 24 hours)

TLE

FreshSource: Space-Track

Epoch: Sep 14, 2026, 00:48 UTC

1 26351U 99057JL  26257.03334419  .00000663  00000-0  16718-3 0  9997
2 26351  98.6135 286.1801 0056499 115.3547 245.3513 14.53564094397403

Track CZ-4 DEB in real time with AllMySat

Download on the App Store